TimeCDT,TemperatureF,Dew PointF,Humidity,Sea Level PressureIn,VisibilityMPH,Wind Direction,Wind SpeedMPH,Gust SpeedMPH,PrecipitationIn,Events,Conditions,WindDirDegrees,DateUTC
12:54 AM,34.0,33.1,96,29.79,0.2,Calm,Calm,-,N/A,Fog,Fog,0,2013-03-10 06:54:00
1:54 AM,34.0,34.0,100,29.78,0.2,Calm,Calm,-,0.00,Fog,Fog,0,2013-03-10 07:54:00
3:54 AM,34.0,34.0,100,29.77,0.2,Calm,Calm,-,0.00,Fog,Fog,0,2013-03-10 08:54:00
4:54 AM,33.1,33.1,100,29.78,0.5,Calm,Calm,-,0.00,Fog,Fog,0,2013-03-10 09:54:00
5:54 AM,34.0,33.1,96,29.75,0.5,NE,5.8,-,N/A,Fog,Fog,40,2013-03-10 10:54:00
7:40 AM,33.8,33.8,100,29.76,1.2,North,4.6,-,N/A,,Overcast,350,2013-03-10 12:40:00
7:54 AM,34.0,33.1,96,29.80,1.5,North,4.6,-,N/A,,Overcast,10,2013-03-10 12:54:00
8:07 AM,33.8,33.8,100,29.75,2.0,NNE,5.8,-,0.00,Rain,Light Rain,20,2013-03-10 13:07:00
8:54 AM,34.0,33.1,96,29.84,2.0,North,5.8,-,0.01,Rain,Light Rain,350,2013-03-10 13:54:00
9:23 AM,35.6,33.8,93,29.81,3.0,NNE,4.6,-,0.01,Rain,Light Rain,20,2013-03-10 14:23:00
9:44 AM,35.6,33.8,93,29.81,5.0,NNE,5.8,-,0.01,Rain,Light Rain,20,2013-03-10 14:44:00
9:52 AM,35.6,33.8,93,29.82,7.0,NE,6.9,-,0.01,Rain,Light Rain,40,2013-03-10 14:52:00
9:54 AM,35.1,34.0,96,29.86,7.0,NE,6.9,-,0.01,Rain,Light Rain,40,2013-03-10 14:54:00
10:03 AM,35.6,33.8,93,29.82,8.0,NNE,4.6,-,0.00,,Overcast,30,2013-03-10 15:03:00
10:54 AM,35.1,33.1,92,29.87,6.0,NNE,8.1,-,0.00,Rain,Light Rain,20,2013-03-10 15:54:00
11:01 AM,35.6,33.8,93,29.83,6.0,North,11.5,-,0.00,Rain,Light Rain,10,2013-03-10 16:01:00
11:20 AM,35.6,33.8,93,29.83,6.0,NNE,11.5,-,0.00,,Overcast,20,2013-03-10 16:20:00
11:37 AM,35.6,33.8,93,29.85,7.0,NNE,8.1,-,0.00,Rain,Light Rain,20,2013-03-10 16:37:00
11:54 AM,35.1,35.1,100,29.89,5.0,NNE,13.8,-,0.00,Rain,Light Rain,20,2013-03-10 16:54:00
12:27 PM,35.6,32.0,87,29.83,6.0,NNE,10.4,-,0.00,Rain,Light Rain,20,2013-03-10 17:27:00
12:43 PM,35.6,32.0,87,29.81,7.0,NNE,15.0,-,0.00,,Overcast,30,2013-03-10 17:43:00
12:54 PM,35.1,32.0,89,29.86,8.0,NNE,17.3,20.7,0.00,,Overcast,30,2013-03-10 17:54:00
1:02 PM,35.6,32.0,87,29.82,10.0,NNE,10.4,-,N/A,,Overcast,30,2013-03-10 18:02:00
1:54 PM,36.0,30.9,82,29.86,10.0,NE,11.5,20.7,N/A,,Overcast,40,2013-03-10 18:54:00
2:54 PM,35.1,30.9,85,29.81,10.0,NE,18.4,23.0,N/A,,Overcast,50,2013-03-10 19:54:00
3:54 PM,35.1,30.9,85,29.84,10.0,NE,10.4,19.6,N/A,,Overcast,40,2013-03-10 20:54:00
4:09 PM,35.6,30.2,81,29.79,10.0,NE,12.7,-,N/A,,Overcast,40,2013-03-10 21:09:00
4:54 PM,35.1,30.0,82,29.85,10.0,NE,12.7,-,N/A,,Overcast,40,2013-03-10 21:54:00
5:54 PM,34.0,30.0,85,29.82,4.0,NE,17.3,23.0,0.01,Rain,Light Rain,50,2013-03-10 22:54:00
6:16 PM,33.8,30.2,87,29.77,5.0,NE,15.0,-,0.00,Rain,Light Rain,50,2013-03-10 23:16:00
6:52 PM,33.8,30.2,87,29.76,5.0,NE,15.0,21.9,0.01,Rain,Light Rain,50,2013-03-10 23:52:00
6:54 PM,33.1,30.0,89,29.81,5.0,NE,15.0,21.9,0.02,Rain,Light Rain,40,2013-03-10 23:54:00
7:22 PM,33.8,30.2,87,29.76,7.0,NE,13.8,21.9,0.01,Rain,Light Rain,40,2013-03-11 00:22:00
7:42 PM,33.8,30.2,87,29.76,2.0,NE,13.8,-,0.02,Snow,Light Snow,40,2013-03-11 00:42:00
7:51 PM,33.8,30.2,87,29.76,1.8,NE,13.8,-,0.02,Snow,Light Snow,40,2013-03-11 00:51:00
7:54 PM,33.1,30.9,92,29.80,1.5,NE,12.7,-,0.02,Snow,Light Snow,40,2013-03-11 00:54:00
8:30 PM,32.0,30.2,93,29.75,2.0,NE,12.7,-,0.01,Snow,Light Snow,40,2013-03-11 01:30:00
8:43 PM,32.0,30.2,93,29.74,2.5,NE,15.0,24.2,0.01,Snow,Light Snow,40,2013-03-11 01:43:00
9:12 PM,32.0,30.2,93,29.73,1.0,NE,15.0,-,0.00,Snow,Light Snow,40,2013-03-11 02:12:00
9:19 PM,32.0,30.2,93,29.72,0.8,NNE,13.8,-,0.01,Snow,Light Snow,30,2013-03-11 02:19:00
9:54 PM,30.9,30.0,96,29.77,1.0,NNE,15.0,23.0,0.03,Snow,Light Snow,30,2013-03-11 02:54:00
10:03 PM,30.2,30.2,100,29.73,0.8,NNE,13.8,23.0,0.00,Snow,Light Snow,30,2013-03-11 03:03:00
10:36 PM,30.2,28.4,93,29.74,1.0,NNE,13.8,20.7,0.01,Snow,Light Snow,30,2013-03-11 03:36:00
10:41 PM,30.2,28.4,93,29.73,0.8,NNE,13.8,-,0.01,Snow,Light Snow,30,2013-03-11 03:41:00
10:54 PM,30.9,28.9,92,29.78,0.5,NNE,15.0,19.6,0.02,Fog-Snow,Snow,30,2013-03-11 03:54:00
12:18 AM,28.4,26.6,93,29.71,0.8,NNE,11.5,20.7,0.01,Snow,Light Snow,20,2013-03-11 05:18:00
12:28 AM,28.4,26.6,93,29.70,1.0,NNE,10.4,23.0,0.01,Snow,Light Snow,20,2013-03-11 05:28:00
12:38 AM,28.4,26.6,93,29.70,1.0,NNE,13.8,-,0.01,Snow,Light Snow,30,2013-03-11 05:38:00
12:49 AM,28.4,26.6,93,29.69,1.0,NNE,11.5,23.0,0.01,Snow,Light Snow,30,2013-03-11 05:49:00
12:54 AM,28.0,26.1,92,29.74,1.0,NNE,10.4,-,0.01,Snow,Light Snow,30,2013-03-11 05:54:00